GW2871 Weather Reports


time (UTC)temp
F
wind
direction
speed
knots
gust
knots
rain 1hr
in
rain 24hr
in
rain mn
in
humidity
%
barometer
mb
20260506191554 75 301 1.7 4.3 0.00 0.00 0.00 49 1018.6
20260506191048 75 16 0.0 3.5 0.00 0.00 0.00 50 1018.8
20260506190551 75 11 0.9 3.5 0.00 0.00 0.00 50 1018.7
20260506190051 75 127 0.0 7.8 0.00 0.00 0.00 51 1018.9
20260506185551 75 277 3.5 7.8 0.00 0.00 0.00 50 1019.0
20260506185048 74 0 2.6 6.1 0.00 0.00 0.00 51 1019.2
20260506184554 75 322 1.7 5.2 0.00 0.00 0.00 51 1019.2
20260506184150 74 252 1.7 5.2 0.00 0.00 0.00 53 1019.2
20260506183550 73 279 0.9 3.5 0.00 0.00 0.00 54 1019.3
20260506183102 73 180 0.0 3.5 0.00 0.00 0.00 54 1019.2
20260506182550 72 0 0.0 2.6 0.00 0.00 0.00 55 1019.3
20260506182050 71 149 0.0 2.6 0.00 0.00 0.00 56 1019.4
20260506181554 70 0 0.0 4.3 0.00 0.00 0.00 58 1019.5
20260506181051 69 0 0.0 4.3 0.00 0.00 0.00 58 1019.4
20260506180551 69 217 1.7 5.2 0.00 0.00 0.00 59 1019.5
20260506180057 69 0 0.0 6.1 0.00 0.00 0.00 60 1019.5
20260506175551 68 327 0.0 6.1 0.00 0.02 0.00 62 1019.5
20260506175050 68 240 0.0 3.5 0.00 0.02 0.00 61 1019.6
20260506174601 68 0 0.0 6.1 0.00 0.02 0.00 62 1019.6
20260506174050 67 263 0.0 6.1 0.00 0.02 0.00 64 1019.6
20260506173550 67 177 0.0 5.2 0.00 0.02 0.00 64 1019.7
20260506173111 66 0 1.7 5.2 0.00 0.02 0.00 66 1019.7
20260506172550 66 273 0.9 7.0 0.00 0.02 0.00 67 1019.8
20260506172048 65 0 1.7 7.0 0.00 0.02 0.00 68 1019.8
20260506171556 65 263 0.0 3.5 0.00 0.02 0.00 68 1019.7
20260506171051 64 0 0.9 3.5 0.00 0.02 0.00 68 1019.7
20260506170553 64 0 0.9 3.5 0.00 0.02 0.00 69 1019.8
20260506170054 63 0 0.0 4.3 0.00 0.02 0.00 71 1019.8
20260506165551 63 246 1.7 6.1 0.00 0.03 0.00 71 1019.8
20260506165048 63 0 0.0 6.1 0.00 0.03 0.00 71 1019.7
20260506164556 62 312 0.9 6.1 0.00 0.03 0.00 73 1019.8
20260506164050 62 0 2.6 6.1 0.00 0.03 0.00 74 1019.8
20260506163550 61 296 0.9 3.5 0.00 0.03 0.00 75 1019.8
20260506163055 60 297 1.7 3.5 0.00 0.03 0.00 76 1019.9
20260506162550 59 0 0.0 3.5 0.00 0.03 0.00 77 1019.9
20260506162050 59 0 0.9 3.5 0.00 0.03 0.00 77 1019.9
20260506161603 58 207 0.9 3.5 0.00 0.03 0.00 78 1019.9
20260506161054 58 207 0.0 5.2 0.00 0.03 0.00 79 1019.9
20260506160550 58 0 0.9 6.1 0.00 0.03 0.00 79 1019.9
20260506160052 58 279 2.6 6.1 0.00 0.03 0.00 79 1019.9
20260506155551 57 0 0.9 3.5 0.00 0.03 0.00 80 1019.9
20260506155048 57 0 0.9 3.5 0.00 0.03 0.00 80 1019.8
20260506154600 57 287 1.7 3.5 0.00 0.03 0.00 81 1020.0
20260506154048 56 291 0.9 5.2 0.00 0.03 0.00 81 1019.9
20260506153551 56 259 0.9 5.2 0.00 0.03 0.00 81 1020.0
20260506153054 56 248 0.9 3.5 0.00 0.03 0.00 82 1019.9
20260506152551 56 0 0.9 3.5 0.00 0.03 0.00 83 1020.0
20260506152054 55 278 0.0 3.5 0.00 0.03 0.00 83 1020.0
20260506151551 55 0 0.0 3.5 0.00 0.03 0.00 83 1020.0
20260506151047 55 0 0.9 3.5 0.00 0.03 0.00 83 1020.0
20260506150550 55 232 0.0 3.5 0.00 0.03 0.00 84 1020.0
20260506145551 55 0 0.0 3.5 0.00 0.03 0.00 84 1020.0
20260506145054 55 211 0.9 3.5 0.00 0.03 0.00 84 1019.9
20260506144603 54 214 0.0 2.6 0.00 0.03 0.00 84 1019.9
20260506144051 54 0 0.9 2.6 0.00 0.03 0.00 84 1019.9
20260506143548 54 262 0.0 1.7 0.00 0.03 0.00 84 1019.9
20260506143056 54 0 0.0 1.7 0.00 0.03 0.00 85 1019.8
20260506142554 54 0 0.0 2.6 0.00 0.03 0.00 85 1019.8
20260506142050 54 0 0.0 2.6 0.00 0.03 0.00 85 1019.7
20260506141550 54 0 0.0 1.7 0.00 0.03 0.00 85 1019.7
20260506141051 54 265 0.0 2.6 0.00 0.03 0.00 85 1019.7
20260506140551 54 263 0.0 2.6 0.00 0.03 0.00 85 1019.6
20260506140110 54 0 0.0 2.6 0.00 0.03 0.00 85 1019.4
20260506135550 54 268 0.0 3.5 0.00 0.03 0.00 86 1019.4
20260506135051 54 275 0.0 3.5 0.00 0.03 0.00 86 1019.5
20260506134553 54 235 0.0 2.6 0.00 0.03 0.00 86 1019.3
20260506134050 53 233 0.9 1.7 0.00 0.03 0.00 86 1019.3
20260506133551 53 0 0.0 1.7 0.00 0.03 0.00 86 1019.3
20260506133116 53 0 0.0 1.7 0.00 0.03 0.00 86 1019.2
20260506132554 53 0 0.0 1.7 0.00 0.03 0.00 86 1019.2
20260506132051 53 0 0.0 0.9 0.00 0.03 0.00 87 1019.2
20260506131555 53 232 0.0 0.9 0.00 0.03 0.00 87 1019.2
20260506131053 53 0 0.0 1.7 0.00 0.03 0.00 87 1019.1
20260506130550 53 0 0.0 1.7 0.00 0.03 0.00 87 1019.0
20260506130136 53 0 0.0 1.7 0.00 0.03 0.00 87 1018.9
20260506125551 53 0 0.0 0.9 0.00 0.03 0.00 87 1018.9
20260506125051 53 0 0.0 0.9 0.00 0.03 0.00 87 1018.9
20260506124554 53 0 0.0 1.7 0.00 0.03 0.00 87 1018.9
20260506124048 53 0 0.0 1.7 0.00 0.03 0.00 87 1018.8
20260506123554 53 232 0.0 1.7 0.00 0.03 0.00 87 1018.8
20260506123052 53 0 0.0 1.7 0.00 0.03 0.00 87 1018.8
20260506122551 53 0 0.0 1.7 0.00 0.03 0.00 87 1018.7
20260506122046 53 0 0.0 1.7 0.00 0.03 0.00 87 1018.8
20260506121555 53 0 0.0 1.7 0.00 0.03 0.00 88 1018.8
20260506121048 53 0 0.0 1.7 0.00 0.03 0.00 88 1018.8
20260506120547 53 0 0.0 1.7 0.00 0.03 0.00 88 1018.7
20260506120055 53 0 0.0 0.0 0.00 0.03 0.00 88 1018.6
20260506115547 53 0 0.0 1.7 0.00 0.03 0.00 88 1018.6
20260506115048 53 0 0.0 1.7 0.00 0.03 0.00 88 1018.6
20260506114550 52 0 0.0 2.6 0.00 0.03 0.00 88 1018.5
20260506114048 52 0 0.0 2.6 0.00 0.03 0.00 88 1018.5
20260506113548 52 0 0.0 2.6 0.00 0.03 0.00 88 1018.5
20260506113054 52 0 0.0 2.6 0.00 0.03 0.00 88 1018.5
20260506112547 52 223 0.9 2.6 0.00 0.03 0.00 88 1018.5
20260506112047 52 0 0.0 1.7 0.00 0.03 0.00 88 1018.4
20260506111555 52 0 0.0 0.0 0.00 0.03 0.00 88 1018.3
20260506111049 52 0 0.0 0.0 0.00 0.03 0.00 87 1018.3
20260506110547 52 0 0.0 0.0 0.00 0.03 0.00 87 1018.2
20260506110053 52 0 0.0 0.0 0.00 0.03 0.00 87 1018.3
20260506105549 52 0 0.0 0.0 0.00 0.06 0.00 87 1018.2
20260506105047 51 0 0.0 0.0 0.00 0.06 0.00 87 1018.2
20260506104559 51 0 0.0 0.0 0.00 0.06 0.00 87 1018.2
20260506104048 51 0 0.0 0.0 0.00 0.06 0.00 87 1018.2
20260506103548 51 0 0.0 0.0 0.00 0.06 0.00 87 1018.3
20260506103054 51 0 0.0 0.0 0.00 0.06 0.00 87 1018.2
20260506102548 51 0 0.0 0.0 0.00 0.06 0.00 87 1018.2
20260506102048 51 0 0.0 1.7 0.00 0.06 0.00 87 1018.3
20260506101553 51 0 0.0 2.6 0.00 0.06 0.00 87 1018.2
20260506101048 51 0 0.9 2.6 0.00 0.06 0.00 87 1018.1
20260506100548 51 274 0.9 2.6 0.00 0.06 0.00 87 1018.1
20260506100107 51 0 0.9 2.6 0.00 0.06 0.00 87 1018.1
20260506095548 51 269 0.9 1.7 0.00 0.06 0.00 87 1018.1
20260506095047 51 267 0.0 1.7 0.00 0.06 0.00 86 1017.9
20260506094600 51 267 0.0 1.7 0.00 0.06 0.00 87 1018.0
20260506094046 51 267 0.9 1.7 0.00 0.06 0.00 87 1018.0
20260506093547 51 0 0.0 0.9 0.00 0.06 0.00 86 1018.0
20260506093052 51 0 0.0 0.9 0.00 0.06 0.00 86 1017.9
20260506092547 51 0 0.0 0.9 0.00 0.06 0.00 86 1018.0
20260506092047 51 0 0.0 0.0 0.00 0.06 0.00 86 1018.0
20260506091551 51 0 0.0 0.0 0.00 0.06 0.00 86 1018.1
20260506091053 51 0 0.0 0.9 0.00 0.06 0.00 86 1018.1
20260506090548 51 0 0.0 0.9 0.00 0.06 0.00 86 1018.2
20260506090051 51 0 0.0 0.9 0.00 0.06 0.00 86 1018.2
20260506085551 51 0 0.0 0.9 0.00 0.06 0.00 86 1018.3
20260506085053 52 0 0.0 0.0 0.00 0.06 0.00 86 1018.3
20260506084554 52 0 0.0 0.0 0.00 0.06 0.00 86 1018.3
20260506084051 52 0 0.0 0.9 0.00 0.06 0.00 86 1018.2
20260506083551 52 0 0.0 0.9 0.00 0.06 0.00 86 1018.2
20260506083058 52 267 0.0 0.9 0.00 0.06 0.00 85 1018.2
20260506082550 52 0 0.0 0.9 0.00 0.06 0.00 85 1018.2
20260506082050 52 0 0.0 0.9 0.00 0.06 0.00 86 1018.3
20260506081605 52 0 0.0 0.0 0.00 0.06 0.00 85 1018.3
20260506081050 52 0 0.0 0.0 0.00 0.06 0.00 85 1018.2
20260506080554 52 0 0.0 0.0 0.00 0.06 0.00 85 1018.2
20260506073053 53 0 0.0 0.0 0.00 0.06 0.00 83 1018.1
20260506072551 53 0 0.0 0.0 0.00 0.06 0.00 83 1018.1
20260506072050 54 0 0.0 0.0 0.00 0.06 0.00 82 1018.0
20260506071555 54 0 0.0 0.9 0.00 0.06 0.00 82 1018.0
20260506071052 54 0 0.0 0.9 0.00 0.06 0.00 81 1018.0
20260506070555 54 0 0.0 0.0 0.00 0.06 0.00 82 1017.9
20260506062050 55 0 0.9 3.5 0.00 0.06 0.06 82 1017.5
20260506061553 55 263 0.0 3.5 0.00 0.06 0.06 81 1017.5
20260506061051 55 268 0.9 3.5 0.00 0.06 0.06 81 1017.4
20260506060554 55 241 0.0 3.5 0.00 0.06 0.06 81 1017.4
20260506051052 56 269 0.9 5.2 0.00 0.06 0.06 79 1016.8
20260506050548 56 224 1.7 6.1 0.00 0.06 0.06 79 1016.6
20260506045052 56 253 1.7 7.8 0.00 0.06 0.06 79 1016.5
20260506044555 57 271 1.7 7.0 0.00 0.06 0.06 79 1016.5
20260506044051 57 281 2.6 7.0 0.00 0.06 0.06 78 1016.5
20260506043551 57 255 2.6 7.0 0.00 0.06 0.06 78 1016.3
20260506043105 57 205 1.7 6.1 0.00 0.06 0.06 78 1016.4
20260506042552 57 243 1.7 6.1 0.00 0.06 0.06 78 1016.3
20260506042051 57 234 1.7 7.0 0.00 0.06 0.06 78 1016.3
20260506041558 57 207 1.7 7.0 0.00 0.06 0.06 78 1016.2
20260506041050 57 276 1.7 6.1 0.00 0.06 0.06 78 1016.2
20260506040550 57 0 2.6 6.1 0.00 0.06 0.06 77 1016.2
20260506040056 57 0 1.7 6.1 0.00 0.06 0.06 77 1016.1
20260506035553 57 268 2.6 6.1 0.00 0.06 0.06 77 1016.0
20260506035048 58 284 0.9 3.5 0.00 0.06 0.06 77 1016.1
20260506034612 58 284 0.9 5.2 0.00 0.06 0.06 77 1016.0
20260506034053 58 271 1.7 5.2 0.00 0.06 0.06 77 1016.0
20260506033550 58 293 0.9 5.2 0.00 0.06 0.06 77 1016.1
20260506033054 58 277 1.7 5.2 0.00 0.06 0.06 77 1015.8
20260506032550 58 274 0.9 5.2 0.00 0.06 0.06 77 1015.8
20260506032051 58 265 1.7 6.1 0.00 0.06 0.06 77 1015.6
20260506031556 58 279 2.6 6.1 0.00 0.06 0.06 76 1015.7
20260506031053 58 281 2.6 5.2 0.00 0.06 0.06 76 1015.7
20260506030547 58 284 0.9 7.0 0.00 0.06 0.06 76 1015.6
20260506030054 58 254 1.7 7.0 0.00 0.06 0.06 75 1015.5
20260506025548 58 261 2.6 7.0 0.00 0.06 0.06 75 1015.5
20260506025048 59 263 2.6 8.7 0.00 0.06 0.06 75 1015.4
20260506024555 59 267 3.5 8.7 0.00 0.06 0.06 75 1015.3
20260506024048 59 281 2.6 8.7 0.00 0.06 0.06 75 1015.3
20260506023548 59 286 3.5 7.0 0.00 0.06 0.06 74 1015.2
20260506023056 59 289 0.9 7.0 0.00 0.06 0.06 74 1015.2
20260506022547 59 284 3.5 7.0 0.00 0.06 0.06 74 1015.2
20260506022047 59 274 4.3 7.0 0.00 0.06 0.06 74 1015.1
20260506021553 60 255 1.7 7.8 0.00 0.06 0.06 74 1015.0
20260506021051 60 281 1.7 7.8 0.00 0.06 0.06 74 1015.0
20260506020548 60 281 4.3 7.8 0.00 0.06 0.06 74 1014.9
20260506020055 60 271 2.6 6.1 0.00 0.06 0.06 74 1014.9
20260506015548 60 259 2.6 6.1 0.00 0.06 0.06 73 1014.8
20260506015050 60 271 3.5 7.8 0.00 0.06 0.06 73 1014.8
20260506014554 60 277 1.7 7.8 0.00 0.06 0.06 73 1014.7
20260506014051 60 243 1.7 6.1 0.00 0.06 0.06 73 1014.6
20260506013552 60 196 1.7 7.8 0.00 0.06 0.06 73 1014.7
20260506013106 60 201 2.6 7.8 0.00 0.06 0.06 73 1014.7
20260506012548 60 215 3.5 7.8 0.00 0.06 0.06 73 1014.8
20260506012050 60 284 5.2 7.8 0.00 0.06 0.06 73 1014.8
20260506011557 61 265 1.7 7.0 0.00 0.06 0.06 73 1014.9
20260506011047 61 255 1.7 7.0 0.00 0.06 0.06 72 1014.9
20260506010548 61 263 2.6 7.8 0.00 0.06 0.06 72 1014.9
20260506010119 61 268 3.5 8.7 0.00 0.06 0.06 72 1014.9
20260506005546 61 275 1.7 8.7 0.00 0.06 0.06 72 1014.8
20260506005047 61 265 3.5 10.4 0.00 0.06 0.06 72 1014.9
20260506004553 61 252 6.1 10.4 0.00 0.06 0.06 71 1014.8
20260506004050 61 302 4.3 7.8 0.00 0.06 0.06 71 1014.7
20260506003549 61 302 3.5 8.7 0.00 0.06 0.06 72 1014.7
20260506003107 61 290 3.5 8.7 0.00 0.06 0.06 72 1014.7
20260506002548 61 284 2.6 7.0 0.00 0.06 0.06 72 1014.7
20260506002048 61 275 3.5 7.8 0.00 0.06 0.06 71 1014.6
20260506001604 61 286 3.5 7.8 0.00 0.06 0.06 71 1014.6
20260506001048 61 269 4.3 7.8 0.00 0.06 0.06 73 1014.5
20260506000547 61 245 3.5 7.0 0.00 0.06 0.06 73 1014.4
20260506000055 61 224 2.6 7.0 0.00 0.06 0.06 73 1014.4
20260505235551 61 258 1.7 7.0 0.00 0.06 0.06 73 1014.4
20260505235055 61 284 3.5 7.0 0.00 0.06 0.06 73 1014.5
20260505234552 61 232 4.3 8.7 0.00 0.06 0.06 73 1014.5
20260505234053 61 281 4.3 8.7 0.00 0.06 0.06 73 1014.5
20260505233550 61 309 4.3 7.8 0.00 0.06 0.06 73 1014.5
20260505233105 61 240 2.6 6.1 0.00 0.06 0.06 74 1014.5
20260505232550 61 296 1.7 6.1 0.00 0.06 0.06 74 1014.5
20260505232051 60 178 1.7 7.0 0.00 0.06 0.06 75 1014.6
20260505231554 60 250 3.5 7.0 0.00 0.06 0.06 75 1014.6
20260505231052 60 269 2.6 6.1 0.00 0.06 0.06 75 1014.7
20260505230551 60 257 2.6 7.0 0.00 0.06 0.06 76 1014.7
20260505230056 60 232 1.7 7.0 0.00 0.06 0.06 76 1014.8
20260505225548 60 253 2.6 7.8 0.00 0.06 0.06 75 1014.8
20260505225049 60 310 4.3 7.8 0.00 0.06 0.06 75 1014.7
20260505224600 60 296 3.5 7.8 0.00 0.06 0.06 76 1014.7
20260505224054 60 233 1.7 6.1 0.00 0.06 0.06 76 1014.7
20260505223551 60 304 2.6 6.1 0.00 0.06 0.06 76 1014.8
20260505223055 59 294 1.7 7.0 0.00 0.06 0.06 77 1014.8
20260505222548 59 261 2.6 7.0 0.00 0.06 0.06 76 1014.8
20260505222051 59 259 1.7 7.8 0.00 0.06 0.06 77 1015.0
20260505221557 59 218 2.6 7.8 0.00 0.06 0.06 76 1014.9
20260505221052 59 243 2.6 7.8 0.00 0.06 0.06 77 1015.0
20260505220547 59 271 3.5 8.7 0.00 0.06 0.06 77 1015.0
20260505220059 59 291 2.6 8.7 0.00 0.06 0.06 78 1015.0
20260505215555 59 293 3.5 8.7 0.00 0.06 0.06 78 1015.0
20260505215048 59 244 2.6 7.8 0.00 0.06 0.06 78 1015.1
20260505214624 58 265 2.6 7.8 0.00 0.06 0.06 79 1015.0
20260505214047 58 316 2.6 7.8 0.00 0.06 0.06 79 1015.1
20260505213554 58 238 2.6 7.8 0.00 0.06 0.06 79 1015.1
20260505213102 58 266 1.7 7.8 0.00 0.06 0.06 79 1015.1
20260505212548 58 275 1.7 7.8 0.00 0.06 0.06 79 1015.1
20260505212051 58 274 2.6 7.8 0.00 0.06 0.06 80 1015.1
20260505211556 58 207 0.9 6.1 0.00 0.06 0.06 81 1015.2
20260505211051 58 0 1.7 6.1 0.00 0.06 0.06 81 1015.1
20260505210550 58 261 1.7 6.1 0.00 0.06 0.06 81 1015.1
20260505210054 58 222 1.7 5.2 0.00 0.06 0.06 82 1015.1
20260505205551 57 0 0.9 5.2 0.00 0.06 0.06 83 1015.1
20260505205049 57 256 1.7 6.1 0.00 0.06 0.06 83 1015.1
20260505204554 57 213 2.6 6.1 0.00 0.06 0.06 84 1015.2
20260505204046 57 250 1.7 7.0 0.00 0.06 0.06 84 1015.2
20260505203547 56 229 2.6 7.0 0.00 0.06 0.06 85 1015.2
20260505203052 56 218 1.7 6.1 0.00 0.06 0.06 85 1015.2
20260505202550 56 242 0.9 6.1 0.00 0.06 0.06 85 1015.3
20260505202048 56 247 2.6 6.1 0.00 0.06 0.06 85 1015.2
20260505201554 56 206 3.5 8.7 0.00 0.06 0.06 86 1015.2
20260505201048 56 195 1.7 8.7 0.00 0.06 0.06 87 1015.3
20260505200548 56 195 2.6 7.8 0.00 0.06 0.06 87 1015.2
20260505200054 56 206 1.7 7.8 0.00 0.06 0.06 88 1015.2
20260505195548 56 211 3.5 7.8 0.00 0.06 0.06 88 1015.2
20260505195048 55 192 2.6 7.8 0.00 0.06 0.06 88 1015.3
20260505194554 55 227 1.7 7.8 0.00 0.06 0.06 88 1015.4
20260505194048 55 198 3.5 7.0 0.00 0.06 0.06 88 1015.3
20260505193548 55 209 1.7 7.0 0.00 0.06 0.06 89 1015.3
20260505193053 55 191 2.6 6.1 0.00 0.06 0.06 89 1015.3
20260505192547 55 182 1.7 8.7 0.00 0.06 0.06 89 1015.4
20260505192047 55 228 2.6 8.7 0.00 0.06 0.06 89 1015.3